QPF
0.00 0.00 0.00 0.00 0.00 0.00 0.00 0.00 0.00 0.00 0.00 0.00 0.00 0.00 0.00 0.00 0.00 0.00 0.00 0.00 0.00 0.00 0.00 0.00 0.01 0.01 0.01 0.01 0.02 0.02 0.02 0.02 0.03 0.03 0.02 0.02 0.02 0.02
0.00 0.00 0.00 0.00 0.00 0.00 0.00 0.00 0.00 0.00 0.00 0.00 0.00 0.00 0.00 0.00 0.00 0.00 0.00 0.00 0.00 0.00 0.00 0.01 0.02 0.02 0.02 0.02 0.02 0.02 0.03 0.03 0.03 0.04 0.04 0.04 0.04 0.03
0.00 0.00 0.00 0.00 0.00 0.00 0.00 0.00 0.00 0.00 0.00 0.00 0.00 0.00 0.00 0.00 0.00 0.00 0.00 0.00 0.00 0.00 0.01 0.01 0.02 0.02 0.02 0.03 0.03 0.03 0.03 0.03 0.04 0.04 0.05 0.05 0.05 0.05
0.00 0.00 0.00 0.00 0.00 0.00 0.00 0.00 0.00 0.00 0.00 0.00 0.00 0.00 0.00 0.00 0.00 0.00 0.00 0.00 0.00 0.00 0.01 0.02 0.02 0.02 0.02 0.02 0.02 0.02 0.03 0.03 0.04 0.04 0.05 0.05 0.05 0.06
0.00 0.00 0.00 0.00 0.00 0.00 0.00 0.00 0.00 0.00 0.01 0.01 0.01 0.00 0.00 0.00 0.00 0.00 0.00 0.00 0.00 0.00 0.01 0.01 0.01 0.01 0.01 0.02 0.02 0.03 0.03 0.03 0.03 0.04 0.04 0.05 0.05 0.06
0.00 0.00 0.00 0.00 0.00 0.00 0.00 0.00 0.01 0.01 0.01 0.02 0.02 0.01 0.01 0.00 0.01 0.01 0.01 0.01 0.00 0.00 0.00 0.00 0.00 0.01 0.01 0.01 0.01 0.01 0.01 0.01 0.02 0.03 0.04 0.04 0.05 0.05
0.00 0.00 0.00 0.00 0.00 0.00 0.01 0.01 0.01 0.02 0.04 0.05 0.04 0.02 0.01 0.01 0.01 0.01 0.01 0.00 0.00 0.00 0.00 0.00 0.00 0.00 0.00 0.00 0.00 0.00 0.01 0.02 0.04 0.06 0.07 0.07 0.07 0.06
0.00 0.00 0.00 0.00 0.00 0.00 0.01 0.02 0.03 0.05 0.07 0.07 0.05 0.03 0.01 0.01 0.01 0.01 0.01 0.02 0.02 0.00 0.01 0.00 0.00 0.00 0.00 0.00 0.00 0.01 0.03 0.04 0.05 0.06 0.06 0.06 0.05 0.05
0.00 0.00 0.00 0.00 0.00 0.00 0.00 0.02 0.03 0.05 0.06 0.05 0.04 0.02 0.01 0.01 0.03 0.04 0.04 0.04 0.03 0.01 0.01 0.00 0.00 0.00 0.00 0.00 0.01 0.02 0.02 0.03 0.03 0.03 0.03 0.03 0.03 0.02
0.00 0.00 0.00 0.00 0.00 0.01 0.02 0.02 0.02 0.02 0.02 0.02 0.01 0.01 0.01 0.02 0.03 0.05 0.04 0.03 0.01 0.00 0.00 0.01 0.00 0.00 0.00 0.00 0.00 0.01 0.01 0.02 0.03 0.03 0.04 0.03 0.03 0.02
0.00 0.00 0.00 0.00 0.01 0.03 0.04 0.06 0.04 0.01 0.01 0.01 0.02 0.01 0.01 0.01 0.01 0.04 0.06 0.05 0.03 0.00 0.00 0.00 0.00 0.00 0.00 0.00 0.00 0.00 0.01 0.02 0.02 0.03 0.03 0.04 0.04 0.03
0.00 0.00 0.00 0.01 0.02 0.05 0.06 0.06 0.03 0.01 0.02 0.01 0.00 0.00 0.00 0.00 0.00 0.03 0.09 0.12 0.08 0.03 0.00 0.01 0.02 0.03 0.04 0.01 0.00 0.00 0.00 0.01 0.01 0.02 0.03 0.03 0.04 0.03
0.01 0.00 0.00 0.02 0.04 0.05 0.04 0.01 0.01 0.02 0.02 0.01 0.00 0.00 0.00 0.00 0.00 0.01 0.04 0.13 0.16 0.09 0.01 0.06 0.09 0.05 0.06 0.03 0.00 0.00 0.02 0.03 0.03 0.03 0.03 0.04 0.04 0.04
0.01 0.00 0.01 0.03 0.04 0.02 0.01 0.01 0.02 0.01 0.00 0.00 0.00 0.00 0.00 0.00 0.01 0.01 0.01 0.04 0.08 0.11 0.06 0.10 0.14 0.08 0.08 0.05 0.02 0.01 0.02 0.05 0.09 0.09 0.08 0.07 0.04 0.02
0.01 0.02 0.03 0.02 0.01 0.00 0.00 0.01 0.01 0.00 0.01 0.02 0.01 0.01 0.01 0.01 0.01 0.01 0.01 0.01 0.01 0.02 0.03 0.06 0.10 0.09 0.08 0.07 0.04 0.02 0.03 0.05 0.10 0.17 0.19 0.14 0.07 0.03
0.02 0.02 0.01 0.00 0.00 0.00 0.00 0.00 0.00 0.01 0.03 0.03 0.02 0.01 0.01 0.01 0.02 0.03 0.04 0.02 0.02 0.01 0.00 0.02 0.05 0.07 0.05 0.03 0.05 0.05 0.08 0.13 0.14 0.21 0.23 0.18 0.11 0.05
0.02 0.00 0.00 0.00 0.00 0.00 0.00 0.00 0.00 0.00 0.01 0.02 0.02 0.02 0.01 0.01 0.01 0.02 0.04 0.04 0.04 0.03 0.02 0.00 0.01 0.02 0.02 0.03 0.05 0.07 0.12 0.18 0.23 0.26 0.25 0.21 0.17 0.11
0.01 0.00 0.00 0.00 0.00 0.00 0.00 0.01 0.00 0.01 0.02 0.02 0.03 0.03 0.03 0.03 0.02 0.02 0.03 0.05 0.05 0.04 0.04 0.02 0.02 0.01 0.01 0.02 0.07 0.13 0.16 0.22 0.27 0.28 0.23 0.20 0.22 0.18
0.00 0.00 0.00 0.01 0.01 0.01 0.01 0.01 0.01 0.01 0.02 0.03 0.03 0.04 0.04 0.03 0.03 0.03 0.03 0.03 0.03 0.03 0.04 0.04 0.04 0.04 0.03 0.03 0.04 0.14 0.23 0.25 0.25 0.22 0.16 0.14 0.20 0.20
0.00 0.01 0.01 0.01 0.01 0.01 0.02 0.02 0.02 0.01 0.01 0.02 0.03 0.03 0.04 0.04 0.03 0.03 0.04 0.05 0.04 0.03 0.02 0.02 0.03 0.05 0.08 0.08 0.09 0.17 0.21 0.22 0.18 0.16 0.13 0.13 0.18 0.20
0.00 0.01 0.01 0.01 0.02 0.02 0.02 0.02 0.02 0.02 0.02 0.03 0.03 0.03 0.04 0.04 0.04 0.03 0.03 0.03 0.04 0.03 0.02 0.02 0.04 0.06 0.06 0.04 0.07 0.15 0.18 0.19 0.16 0.13 0.11 0.09 0.10 0.13
0.01 0.01 0.01 0.01 0.02 0.02 0.02 0.02 0.02 0.02 0.02 0.02 0.02 0.03 0.03 0.04 0.05 0.04 0.04 0.03 0.03 0.03 0.03 0.03 0.03 0.03 0.03 0.05 0.07 0.11 0.14 0.14 0.13 0.11 0.09 0.06 0.07 0.14
0.01 0.01 0.01 0.01 0.02 0.02 0.02 0.02 0.01 0.02 0.02 0.03 0.02 0.02 0.03 0.04 0.04 0.05 0.04 0.03 0.03 0.02 0.02 0.02 0.02 0.03 0.04 0.05 0.06 0.09 0.10 0.10 0.07 0.09 0.16 0.13 0.11 0.13
MSLP
1016.43 1016.29 1016.11 1015.82 1015.38 1014.79 1014.04 1013.19 1012.27 1011.35 1010.49 1009.73 1009.09 1008.56 1008.11 1007.70 1007.30 1006.86 1006.37 1005.81 1005.20 1004.54 1003.88 1003.22 1002.59 1001.98 1001.41 1000.86 1000.33 999.82 999.34 998.89 998.48 998.13 997.83 997.58 997.38 997.19
1016.07 1015.91 1015.72 1015.43 1015.01 1014.43 1013.71 1012.87 1011.96 1011.03 1010.15 1009.34 1008.64 1008.03 1007.50 1007.01 1006.53 1006.04 1005.50 1004.91 1004.29 1003.65 1003.00 1002.37 1001.76 1001.18 1000.61 1000.06 999.52 998.99 998.48 997.98 997.54 997.13 996.79 996.51 996.27 996.07
1015.63 1015.45 1015.23 1014.94 1014.52 1013.95 1013.25 1012.43 1011.53 1010.61 1009.71 1008.87 1008.11 1007.44 1006.83 1006.26 1005.70 1005.14 1004.55 1003.94 1003.31 1002.67 1002.04 1001.42 1000.83 1000.25 999.69 999.14 998.58 998.03 997.49 996.97 996.48 996.04 995.66 995.34 995.07 994.83
1015.18 1014.95 1014.70 1014.38 1013.95 1013.39 1012.70 1011.89 1011.01 1010.09 1009.19 1008.32 1007.51 1006.78 1006.10 1005.45 1004.83 1004.21 1003.58 1002.93 1002.28 1001.63 1001.00 1000.38 999.79 999.21 998.64 998.07 997.50 996.94 996.38 995.84 995.34 994.88 994.48 994.13 993.82 993.55
1014.72 1014.45 1014.16 1013.81 1013.35 1012.77 1012.08 1011.28 1010.40 1009.49 1008.58 1007.69 1006.85 1006.07 1005.33 1004.63 1003.95 1003.28 1002.60 1001.93 1001.25 1000.57 999.92 999.28 998.65 998.05 997.45 996.87 996.28 995.71 995.15 994.62 994.12 993.67 993.26 992.90 992.58 992.28
1014.28 1013.96 1013.62 1013.21 1012.72 1012.12 1011.41 1010.61 1009.73 1008.82 1007.90 1007.01 1006.15 1005.34 1004.57 1003.83 1003.11 1002.39 1001.68 1000.96 1000.25 999.53 998.83 998.15 997.48 996.82 996.19 995.57 994.96 994.38 993.83 993.32 992.85 992.42 992.04 991.69 991.36 991.05
1013.86 1013.48 1013.07 1012.61 1012.08 1011.44 1010.71 1009.89 1009.02 1008.11 1007.19 1006.30 1005.44 1004.62 1003.83 1003.07 1002.32 1001.58 1000.84 1000.08 999.32 998.56 997.80 997.05 996.31 995.59 994.90 994.23 993.59 993.01 992.47 991.98 991.54 991.16 990.81 990.49 990.18 989.86
1013.43 1012.98 1012.52 1012.00 1011.40 1010.73 1009.97 1009.15 1008.27 1007.38 1006.48 1005.59 1004.74 1003.93 1003.14 1002.37 1001.62 1000.86 1000.09 999.30 998.50 997.69 996.86 996.04 995.22 994.42 993.65 992.92 992.24 991.63 991.09 990.62 990.21 989.87 989.56 989.28 989.00 988.70
1012.97 1012.46 1011.93 1011.35 1010.71 1010.00 1009.22 1008.39 1007.53 1006.65 1005.77 1004.92 1004.09 1003.28 1002.51 1001.75 1000.99 1000.22 999.44 998.63 997.79 996.92 996.03 995.13 994.23 993.35 992.49 991.69 990.95 990.29 989.72 989.25 988.85 988.53 988.26 988.01 987.76 987.50
1012.48 1011.91 1011.32 1010.68 1010.00 1009.26 1008.48 1007.66 1006.81 1005.95 1005.11 1004.28 1003.48 1002.70 1001.94 1001.18 1000.42 999.65 998.85 998.02 997.15 996.24 995.30 994.34 993.36 992.40 991.46 990.56 989.75 989.02 988.39 987.87 987.45 987.11 986.84 986.61 986.40 986.19
1011.97 1011.34 1010.69 1010.01 1009.30 1008.55 1007.77 1006.96 1006.14 1005.32 1004.51 1003.71 1002.93 1002.16 1001.41 1000.65 999.89 999.10 998.29 997.44 996.55 995.61 994.63 993.62 992.59 991.55 990.52 989.54 988.62 987.80 987.08 986.47 985.98 985.59 985.29 985.06 984.86 984.69
1011.44 1010.77 1010.08 1009.38 1008.65 1007.90 1007.13 1006.35 1005.56 1004.77 1003.99 1003.21 1002.44 1001.68 1000.91 1000.14 999.36 998.55 997.71 996.84 995.93 994.98 993.97 992.93 991.85 990.76 989.66 988.58 987.56 986.62 985.77 985.05 984.44 983.96 983.60 983.33 983.14 983.01
1010.94 1010.24 1009.53 1008.82 1008.09 1007.35 1006.61 1005.85 1005.10 1004.34 1003.57 1002.81 1002.03 1001.25 1000.45 999.64 998.82 997.97 997.10 996.21 995.28 994.31 993.29 992.23 991.13 989.99 988.83 987.67 986.54 985.47 984.48 983.61 982.87 982.27 981.81 981.48 981.28 981.17
1010.49 1009.79 1009.08 1008.37 1007.65 1006.94 1006.22 1005.50 1004.77 1004.03 1003.27 1002.50 1001.70 1000.88 1000.04 999.17 998.28 997.38 996.46 995.53 994.58 993.60 992.58 991.51 990.39 989.23 988.02 986.79 985.56 984.37 983.24 982.22 981.33 980.59 980.02 979.62 979.39 979.29
1010.14 1009.45 1008.75 1008.06 1007.37 1006.68 1005.98 1005.29 1004.58 1003.85 1003.09 1002.30 1001.46 1000.59 999.68 998.74 997.78 996.80 995.83 994.85 993.87 992.87 991.85 990.79 989.67 988.49 987.26 985.97 984.67 983.37 982.13 980.97 979.95 979.08 978.40 977.92 977.64 977.54
1009.90 1009.23 1008.56 1007.89 1007.22 1006.56 1005.89 1005.21 1004.51 1003.78 1003.01 1002.19 1001.31 1000.37 999.39 998.37 997.33 996.29 995.25 994.23 993.21 992.20 991.17 990.12 989.01 987.84 986.60 985.29 983.94 982.58 981.25 980.00 978.86 977.89 977.12 976.56 976.23 976.12
1009.77 1009.14 1008.49 1007.85 1007.20 1006.55 1005.89 1005.22 1004.52 1003.79 1003.00 1002.14 1001.22 1000.23 999.18 998.10 996.99 995.88 994.78 993.71 992.67 991.65 990.62 989.58 988.49 987.35 986.12 984.83 983.48 982.10 980.74 979.44 978.24 977.21 976.36 975.75 975.37 975.23
1009.74 1009.13 1008.52 1007.89 1007.25 1006.61 1005.95 1005.27 1004.56 1003.81 1003.00 1002.11 1001.16 1000.13 999.04 997.91 996.75 995.60 994.46 993.37 992.31 991.28 990.27 989.25 988.20 987.10 985.93 984.69 983.38 982.04 980.70 979.40 978.21 977.16 976.29 975.65 975.24 975.05
1009.77 1009.19 1008.59 1007.96 1007.32 1006.66 1005.99 1005.29 1004.55 1003.78 1002.94 1002.04 1001.07 1000.02 998.91 997.76 996.59 995.43 994.29 993.19 992.14 991.13 990.15 989.17 988.18 987.14 986.05 984.90 983.68 982.43 981.17 979.95 978.81 977.79 976.95 976.30 975.86 975.64
1009.83 1009.26 1008.66 1008.02 1007.35 1006.66 1005.94 1005.21 1004.44 1003.63 1002.78 1001.86 1000.88 999.84 998.75 997.62 996.47 995.33 994.22 993.15 992.14 991.17 990.24 989.33 988.42 987.48 986.49 985.46 984.37 983.25 982.12 981.03 979.99 979.07 978.28 977.66 977.22 976.97
1009.89 1009.32 1008.69 1008.01 1007.30 1006.55 1005.78 1004.98 1004.17 1003.33 1002.45 1001.53 1000.56 999.55 998.49 997.41 996.33 995.25 994.20 993.20 992.26 991.36 990.51 989.69 988.87 988.05 987.20 986.31 985.38 984.43 983.47 982.53 981.65 980.84 980.15 979.59 979.18 978.91
1009.92 1009.32 1008.64 1007.91 1007.12 1006.30 1005.46 1004.60 1003.73 1002.84 1001.94 1001.01 1000.07 999.09 998.10 997.10 996.10 995.12 994.17 993.27 992.42 991.62 990.88 990.16 989.47 988.78 988.07 987.35 986.60 985.83 985.06 984.31 983.59 982.94 982.37 981.89 981.52 981.26
1009.89 1009.24 1008.50 1007.69 1006.83 1005.92 1004.99 1004.05 1003.11 1002.18 1001.25 1000.32 999.40 998.48 997.57 996.66 995.77 994.91 994.08 993.30 992.57 991.90 991.27 990.68 990.12 989.57 989.02 988.46 987.89 987.31 986.73 986.17 985.63 985.13 984.69 984.32 984.01 983.78
Thickness
5481 5474 5466 5460 5452 5444 5435 5425 5420 5430 5447 5441 5424 5411 5393 5379 5367 5356 5348 5342 5339 5337 5337 5338 5339 5340 5342 5345 5347 5349 5353 5357 5363 5370 5378 5386 5395 5405
5467 5460 5452 5445 5437 5427 5417 5407 5394 5387 5401 5416 5402 5386 5370 5353 5337 5326 5317 5313 5312 5311 5312 5314 5316 5318 5320 5323 5325 5328 5331 5335 5340 5347 5354 5362 5370 5379
5452 5445 5437 5428 5419 5409 5398 5387 5374 5359 5357 5374 5372 5359 5343 5329 5318 5306 5295 5290 5290 5291 5292 5294 5296 5298 5300 5303 5305 5308 5312 5315 5320 5326 5333 5341 5349 5359
5438 5429 5420 5412 5401 5389 5378 5366 5354 5339 5324 5324 5335 5329 5318 5307 5300 5292 5283 5277 5273 5273 5275 5277 5279 5281 5283 5286 5288 5291 5295 5299 5304 5309 5317 5325 5332 5340
5422 5412 5402 5391 5381 5369 5356 5344 5332 5320 5304 5291 5294 5296 5294 5287 5279 5275 5269 5264 5260 5259 5261 5262 5263 5266 5269 5272 5275 5278 5282 5287 5291 5296 5301 5308 5316 5325
5406 5394 5382 5369 5357 5345 5334 5321 5307 5295 5284 5275 5272 5273 5272 5267 5258 5256 5258 5255 5253 5251 5251 5252 5254 5256 5258 5260 5264 5268 5272 5275 5279 5284 5290 5296 5303 5311
5390 5376 5362 5348 5334 5319 5306 5294 5281 5272 5265 5260 5258 5256 5255 5250 5246 5244 5246 5250 5250 5244 5246 5247 5245 5248 5249 5251 5255 5259 5263 5268 5273 5278 5282 5288 5293 5301
5370 5357 5342 5327 5313 5300 5284 5272 5262 5254 5248 5245 5245 5243 5242 5239 5238 5238 5239 5242 5248 5243 5239 5245 5241 5244 5246 5248 5252 5256 5260 5265 5269 5272 5276 5280 5285 5292
5347 5333 5320 5306 5289 5276 5268 5261 5253 5245 5239 5235 5234 5233 5233 5233 5233 5235 5235 5234 5237 5238 5235 5245 5243 5244 5247 5249 5253 5257 5260 5263 5266 5269 5272 5275 5278 5284
5325 5308 5294 5283 5270 5261 5256 5251 5244 5238 5233 5231 5229 5230 5230 5230 5229 5230 5231 5233 5236 5234 5231 5238 5244 5245 5249 5251 5254 5259 5263 5266 5268 5269 5270 5272 5275 5278
5308 5290 5273 5264 5257 5250 5244 5240 5237 5234 5232 5230 5229 5229 5230 5229 5228 5228 5229 5229 5234 5237 5234 5235 5243 5247 5252 5256 5260 5264 5268 5270 5271 5271 5271 5271 5272 5274
5297 5279 5262 5252 5247 5242 5236 5233 5231 5232 5232 5231 5230 5230 5230 5229 5228 5225 5223 5226 5230 5236 5239 5238 5243 5247 5258 5266 5268 5268 5270 5271 5272 5273 5272 5272 5271 5272
5276 5266 5254 5246 5242 5237 5233 5228 5227 5231 5230 5229 5231 5233 5233 5232 5231 5228 5226 5225 5230 5236 5241 5241 5246 5249 5253 5267 5274 5276 5276 5277 5277 5276 5276 5276 5276 5278
5257 5251 5245 5241 5237 5233 5229 5228 5230 5229 5227 5228 5230 5233 5234 5234 5234 5234 5233 5233 5234 5238 5243 5244 5249 5254 5260 5268 5278 5285 5286 5286 5286 5288 5287 5287 5287 5291
5248 5242 5238 5235 5232 5228 5227 5229 5229 5226 5227 5228 5230 5232 5233 5235 5237 5239 5241 5243 5245 5248 5251 5253 5256 5261 5264 5270 5278 5287 5293 5300 5302 5304 5306 5306 5307 5311
5242 5238 5234 5229 5227 5226 5228 5227 5226 5226 5227 5228 5229 5232 5235 5238 5240 5242 5245 5249 5253 5260 5263 5264 5265 5268 5274 5278 5283 5292 5299 5306 5317 5322 5327 5330 5333 5338
5239 5234 5230 5227 5226 5226 5227 5227 5227 5227 5227 5228 5230 5233 5236 5240 5243 5245 5247 5251 5254 5261 5269 5273 5276 5280 5284 5286 5293 5303 5313 5323 5333 5342 5348 5354 5359 5364
5232 5227 5225 5224 5224 5225 5226 5227 5227 5227 5228 5228 5230 5233 5236 5239 5244 5248 5250 5253 5258 5263 5269 5274 5280 5287 5294 5303 5304 5312 5325 5335 5346 5356 5363 5371 5378 5383
5224 5222 5222 5222 5223 5223 5224 5225 5227 5228 5228 5229 5231 5233 5236 5240 5244 5249 5253 5257 5261 5266 5270 5275 5280 5285 5292 5302 5315 5321 5330 5340 5350 5360 5367 5374 5382 5390
5221 5221 5221 5222 5223 5223 5224 5225 5227 5229 5229 5230 5232 5234 5237 5240 5245 5250 5254 5258 5263 5267 5272 5277 5283 5289 5294 5300 5308 5320 5333 5342 5350 5357 5364 5372 5380 5389
5221 5221 5222 5222 5223 5224 5225 5226 5227 5228 5230 5230 5233 5235 5238 5242 5247 5251 5256 5261 5264 5266 5271 5277 5283 5291 5298 5306 5314 5324 5332 5338 5345 5353 5359 5367 5375 5382
5221 5222 5223 5224 5225 5226 5226 5227 5229 5230 5231 5232 5234 5236 5240 5243 5248 5253 5258 5261 5264 5266 5270 5276 5283 5291 5298 5305 5313 5321 5328 5334 5340 5347 5354 5360 5366 5370
5222 5223 5225 5226 5227 5228 5228 5229 5230 5232 5233 5235 5236 5239 5242 5246 5251 5256 5260 5262 5264 5267 5270 5275 5282 5288 5295 5301 5308 5316 5323 5328 5334 5340 5343 5346 5353 5358